Location: Acheville
(50.3840°N, 2.8827°E)
Time: 11:01:33
(UTC+00:00)

Cosmos 2322 Rocket - Pass Details

Date: 24 October 2021
Orbit: 832 x 851 km, 71.0° (Epoch: 30 November)

Event Time Altitude Azimuth Distance (km) Brightness Sun altitude
Rises 19:48:28 0° 242° (WSW) 3,371 5.9 -30.6°
Reaches altitude 10° 19:51:10 10° 252° (WSW) 2,442 5.2 -31.0°
Maximum altitude 19:56:07 31° 314° (NW) 1,420 3.8 -31.7°
Enters shadow 20:00:10 14° 11° (N) 2,165 4.4 -32.3°
